Date String (YYYY-MM-DD hh:mm:ss) UTC,Instrument flags,absolute air pressure of the measurement (hPa),sample flow rate (lpm),inlet stack bypass flow (lpm),air temperature of the measurement (°C),ambient temperature measured by the external sensor (°C),aerosol sample conditioner tube jacket temperature (°C),OPC LED temperature (°C),internal box temperature (°C),relative humidity of the measurement (%),span deviation,mass concentration of particles derived from Lorenz-Mie calculation of OPC scattering (μg/m³),mass concentration of particles derived from Lorenz-Mie calculation of OPC scattering (μg/m³),mass concentration of particles derived from Lorenz-Mie calculation of OPC scattering (μg/m³)
DateTimeUTC,F1_M11,P_M11,Q1_M11,Q2_M11,T1_M11,T2_M11,T3_M11,T4_M11,T5_M11,U1_M11,ZSPAN_M11,X0_M11,X2_M11,X1_M11
2023-11-21 00:00:00,SystemResetWarning,0837.4,5.00,000.00,023.2,022.2,000.0,031.5,024.5,14.8,0000.0,0001.63,0000.67,0000.49
2023-11-21 00:01:00,SystemResetWarning,0837.4,5.00,000.00,023.2,022.2,000.0,031.5,024.5,14.8,0000.0,0001.65,0000.68,0000.49
2023-11-21 00:02:00,SystemResetWarning,0837.4,5.00,000.00,023.2,022.2,000.0,031.5,024.5,14.8,0000.0,0001.41,0000.72,0000.49
2023-11-21 00:03:00,SystemResetWarning,0837.5,5.00,000.00,023.2,022.1,000.0,031.5,024.4,14.8,0000.0,0001.47,0000.75,0000.49
2023-11-21 00:04:00,SystemResetWarning,0837.5,5.00,000.00,023.2,022.1,000.0,031.5,024.5,14.8,0000.0,0002.78,0000.74,0000.48
2023-11-21 00:05:00,SystemResetWarning,0837.5,5.00,000.00,023.2,022.1,000.0,031.5,024.5,14.8,0000.0,0003.02,0000.77,0000.48
2023-11-21 00:06:00,SystemResetWarning,0837.5,5.00,000.00,023.2,022.1,000.0,031.5,024.4,14.9,0000.0,0003.19,0000.84,0000.50
2023-11-21 00:07:00,SystemResetWarning,0837.5,5.00,000.00,023.2,022.1,000.0,031.5,024.4,14.9,0000.0,0003.16,0000.86,0000.50
2023-11-21 00:08:00,SystemResetWarning,0837.5,5.00,000.00,023.2,022.1,000.0,031.5,024.4,14.9,0000.0,0003.45,0000.89,0000.50
2023-11-21 00:09:00,SystemResetWarning,0837.5,5.00,000.00,023.2,022.1,000.0,031.5,024.4,14.9,0000.0,0003.44,0000.87,0000.51
2023-11-21 00:10:00,SystemResetWarning,0837.5,5.00,000.00,023.2,022.1,000.0,031.5,024.4,14.9,0000.0,0003.51,0000.88,0000.51
2023-11-21 00:11:00,SystemResetWarning,0837.5,5.00,000.00,023.2,022.1,000.0,031.5,024.4,14.9,0000.0,0003.51,0000.91,0000.52
2023-11-21 00:12:00,SystemResetWarning,0837.5,5.00,000.00,023.2,022.1,000.0,031.5,024.4,14.9,0000.0,0003.72,0000.93,0000.53
2023-11-21 00:13:00,SystemResetWarning,0837.5,5.00,000.00,023.2,022.1,000.0,031.5,024.5,15.0,0000.0,0003.63,0000.90,0000.53
2023-11-21 00:14:00,SystemResetWarning,0837.6,5.00,000.00,023.2,022.1,000.0,031.5,024.4,15.0,0000.0,0003.47,0000.84,0000.53
2023-11-21 00:15:00,SystemResetWarning,0837.6,5.00,000.00,023.1,022.1,000.0,031.5,024.4,15.0,0000.0,0002.61,0000.83,0000.52
2023-11-21 00:16:00,SystemResetWarning,0837.6,5.00,000.00,023.1,022.1,000.0,031.5,024.4,15.0,0000.0,0002.60,0000.86,0000.53
2023-11-21 00:17:00,SystemResetWarning,0837.6,5.00,000.00,023.1,022.1,000.0,031.5,024.4,15.1,0000.0,0003.27,0000.84,0000.52
2023-11-21 00:18:00,SystemResetWarning,0837.6,5.00,000.00,023.1,022.1,000.0,031.4,024.4,15.1,0000.0,0003.49,0000.82,0000.53
2023-11-21 00:19:00,SystemResetWarning,0837.7,4.99,000.00,023.1,022.1,000.0,031.4,024.4,15.1,0000.0,0003.50,0000.83,0000.54
2023-11-21 00:20:00,SystemResetWarning,0837.7,4.99,000.00,023.1,022.1,000.0,031.4,024.4,15.1,0000.0,0004.80,0000.85,0000.54
2023-11-21 00:21:00,SystemResetWarning,0837.7,4.99,000.00,023.1,022.1,000.0,031.4,024.4,15.1,0000.0,0005.06,0000.88,0000.54
2023-11-21 00:22:00,SystemResetWarning,0837.7,5.00,000.00,023.1,022.1,000.0,031.4,024.4,15.1,0000.0,0006.13,0000.87,0000.54
2023-11-21 00:23:00,SystemResetWarning,0837.7,5.00,000.00,023.1,022.1,000.0,031.4,024.4,15.1,0000.0,0005.99,0000.84,0000.53
2023-11-21 00:24:00,SystemResetWarning,0837.7,5.00,000.00,023.1,022.1,000.0,031.4,024.4,15.1,0000.0,0006.14,0000.88,0000.54
2023-11-21 00:25:00,SystemResetWarning,0837.7,5.00,000.00,023.1,022.1,000.0,031.4,024.4,15.0,0000.0,0006.22,0000.91,0000.55
2023-11-21 00:26:00,SystemResetWarning,0837.7,5.00,000.00,023.1,022.1,000.0,031.4,024.4,15.0,0000.0,0006.28,0000.97,0000.56
2023-11-21 00:27:00,SystemResetWarning,0837.8,5.01,000.00,023.1,022.1,000.0,031.4,024.4,15.0,0000.0,0005.80,0000.95,0000.57
2023-11-21 00:28:00,SystemResetWarning,0837.7,5.00,000.00,023.1,022.1,000.0,031.4,024.3,15.1,0000.0,0005.24,0000.97,0000.58
2023-11-21 00:29:00,SystemResetWarning,0837.8,5.01,000.00,023.1,022.1,000.0,031.4,024.4,15.1,0000.0,0005.02,0000.99,0000.58
2023-11-21 00:30:00,SystemResetWarning,0837.8,5.00,000.00,023.1,022.1,000.0,031.4,024.4,15.1,0000.0,0004.88,0000.99,0000.59
2023-11-21 00:31:00,SystemResetWarning,0837.8,5.00,000.00,023.1,022.1,000.0,031.4,024.4,15.1,0000.0,0003.75,0001.05,0000.59
2023-11-21 00:32:00,SystemResetWarning,0838.0,5.00,000.00,023.1,022.1,000.0,031.4,024.4,15.1,0000.0,0004.53,0001.07,0000.60
2023-11-21 00:33:00,SystemResetWarning,0838.0,5.00,000.00,023.1,022.1,000.0,031.4,024.4,15.1,0000.0,0004.30,0001.05,0000.61
2023-11-21 00:34:00,SystemResetWarning,0838.0,5.00,000.00,023.1,022.1,000.0,031.4,024.3,15.0,0000.0,0003.90,0001.02,0000.61
2023-11-21 00:35:00,SystemResetWarning,0838.0,5.00,000.00,023.1,022.1,000.0,031.4,024.4,15.1,0000.0,0003.79,0001.01,0000.62
2023-11-21 00:36:00,SystemResetWarning,0838.0,5.00,000.00,023.1,022.1,000.0,031.4,024.3,15.1,0000.0,0003.85,0001.00,0000.62
2023-11-21 00:37:00,SystemResetWarning,0838.0,5.01,000.00,023.1,022.1,000.0,031.4,024.3,15.1,0000.0,0003.95,0000.99,0000.63
2023-11-21 00:38:00,SystemResetWarning,0838.0,5.00,000.00,023.1,022.0,000.0,031.4,024.4,15.1,0000.0,0003.88,0000.97,0000.63
2023-11-21 00:39:00,SystemResetWarning,0838.0,5.00,000.00,023.1,022.1,000.0,031.4,024.3,15.1,0000.0,0003.65,0000.94,0000.63
2023-11-21 00:40:00,SystemResetWarning,0838.0,5.00,000.00,023.1,022.1,000.0,031.4,024.3,15.1,0000.0,0003.54,0000.93,0000.63
2023-11-21 00:41:00,SystemResetWarning,0838.0,5.00,000.00,023.1,022.1,000.0,031.4,024.4,15.1,0000.0,0003.46,0000.90,0000.63
2023-11-21 00:42:00,SystemResetWarning,0838.2,5.00,000.00,023.1,022.1,000.0,031.4,024.4,15.1,0000.0,0003.47,0000.89,0000.63
2023-11-21 00:43:00,SystemResetWarning,0838.2,4.99,000.00,023.1,022.1,000.0,031.4,024.4,15.1,0000.0,0003.17,0000.83,0000.63
2023-11-21 00:44:00,SystemResetWarning,0838.2,4.99,000.00,023.1,022.1,000.0,031.4,024.4,15.2,0000.0,0001.82,0000.83,0000.63
2023-11-21 00:45:00,SystemResetWarning,0838.2,5.00,000.00,023.1,022.1,000.0,031.4,024.4,15.2,0000.0,0001.75,0000.85,0000.63
2023-11-21 00:46:00,SystemResetWarning,0838.2,5.00,000.00,023.1,022.1,000.0,031.4,024.4,15.4,0000.0,0002.99,0000.87,0000.64
2023-11-21 00:47:00,SystemResetWarning,0838.2,5.01,000.00,023.1,022.1,000.0,031.4,024.4,15.4,0000.0,0004.09,0000.88,0000.65
2023-11-21 00:48:00,SystemResetWarning,0838.2,5.00,000.00,023.1,022.1,000.0,031.4,024.4,15.5,0000.0,0003.92,0000.89,0000.66
2023-11-21 00:49:00,SystemResetWarning,0838.2,5.01,000.00,023.1,022.1,000.0,031.4,024.4,15.5,0000.0,0003.98,0000.91,0000.67
2023-11-21 00:50:00,SystemResetWarning,0838.3,5.01,000.00,023.1,022.2,000.0,031.4,024.4,15.4,0000.0,0004.04,0000.92,0000.67
2023-11-21 00:51:00,SystemResetWarning,0838.3,5.00,000.00,023.1,022.2,000.0,031.4,024.4,15.4,0000.0,0004.07,0000.93,0000.66
2023-11-21 00:52:00,SystemResetWarning,0838.4,5.01,000.00,023.1,022.2,000.0,031.4,024.4,15.4,0000.0,0004.17,0000.94,0000.67
2023-11-21 00:53:00,SystemResetWarning,0838.4,5.00,000.00,023.1,022.2,000.0,031.4,024.5,15.4,0000.0,0004.15,0000.95,0000.67
2023-11-21 00:54:00,SystemResetWarning,0838.4,5.00,000.00,023.1,022.2,000.0,031.4,024.5,15.3,0000.0,0004.07,0000.93,0000.67
2023-11-21 00:55:00,SystemResetWarning,0838.4,5.00,000.00,023.1,022.2,000.0,031.4,024.5,15.3,0000.0,0004.12,0000.92,0000.67
2023-11-21 00:56:00,SystemResetWarning,0838.4,4.99,000.00,023.1,022.2,000.0,031.4,024.4,15.2,0000.0,0004.13,0000.94,0000.68
2023-11-21 00:57:00,SystemResetWarning,0838.4,5.00,000.00,023.1,022.2,000.0,031.4,024.5,15.1,0000.0,0003.02,0000.94,0000.67
2023-11-21 00:58:00,SystemResetWarning,0838.4,4.99,000.00,023.2,022.2,000.0,031.4,024.5,15.1,0000.0,0002.06,0000.97,0000.68
2023-11-21 00:59:00,SystemResetWarning,0838.4,5.00,000.00,023.2,022.2,000.0,031.4,024.5,15.1,0000.0,0002.13,0000.98,0000.68
